Regional Weather Roundup
Issued by NWS

Home | Current Version | Previous Version | Graphics & Text | Print | Product List | Glossary On
Versions: 1 2 3 4 5 6 7 8 9 10 11 12 13 14 15 16 17 18 19 20 21 22 23 24 25 26 27 28 29 30 31 32 33 34 35 36 37 38 39 40 41 42 43 44 45 46 47 48 49 50
000
ASUS43 KLOT 020621
RWRIL

ILLINOIS REGIONAL WEATHER ROUNDUP
NATIONAL WEATHER SERVICE CHICAGO/ROMEOVILLE IL
100 AM CDT SUN AUG 02 2015

NOTE: "FAIR" INDICATES FEW OR NO CLOUDS BELOW 12,000 FEET WITH NO
SIGNIFICANT WEATHER AND/OR OBSTRUCTIONS TO VISIBILITY.

* THESE STATIONS ARE NOT UNDER NWS QUALITY CONTROL. THEY ALSO MAY NOT
  REPORT WEATHER SUCH AS PRECIPITATION OR FOG.

ILZ001-002-007-009-015-016-024-020700-
NORTHWEST ILLINOIS

CITY           SKY/WX    TMP DP  RH WIND       PRES   REMARKS
MOLINE         CLEAR     75  69  81 SW6       29.91S
6HR MIN TEMP:  73; 6HR MAX TEMP:  82;

STERLING*      CLEAR     70  64  83 CALM      29.88F
SAVANNA*       CLEAR     71  67  87 S5        29.89F
$$

ILZ003-004-008-010-011-017-018-020700-
NORTH CENTRAL ILLINOIS

CITY           SKY/WX    TMP DP  RH WIND       PRES   REMARKS
ROCKFORD       CLEAR     69  64  84 S5        29.91S
6HR MIN TEMP:  68; 6HR MAX TEMP:  81;

FREEPORT*      CLEAR     69  65  88 SW6       29.91F
ROCHELLE*      CLEAR     67  65  93 SW7       29.92S
DE KALB*       CLEAR     72  65  78 SW10      29.91F
PERU*          CLEAR     72  65  80 SW8       29.92F
$$

ILZ005-006-012>014-019>023-020700-
NORTHEAST ILLINOIS

CITY           SKY/WX    TMP DP  RH WIND       PRES   REMARKS
CHICAGO-OHARE  CLEAR     74  65  73 SW8       29.89S
6HR MIN TEMP:  74; 6HR MAX TEMP:  83;

CHICAGO-MIDWAY CLEAR     76  64  66 SW9       29.89F
6HR MIN TEMP:  76; 6HR MAX TEMP:  85;

AURORA         CLEAR     71  64  78 SW9       29.91S
6HR MIN TEMP:  70; 6HR MAX TEMP:  80;

LANSING*       CLEAR     72  63  72 SW6       29.91S
JOLIET*        CLEAR     74  66  76 SW5       29.91S
WAUKEGAN       CLEAR     73  65  75 SW5       29.86F
6HR MIN TEMP:  72; 6HR MAX TEMP:  82;

DUPAGE AIRPORT CLEAR     71  65  81 SW10      29.90S
6HR MIN TEMP:  71; 6HR MAX TEMP:  82;

KANKAKEE*      CLEAR     68  64  86 SW6       29.93F
WHEELING       CLEAR     76  64  66 SW6       29.89F
6HR MIN TEMP:  75; 6HR MAX TEMP:  84;

MORRIS*        CLEAR     69  64  84 W7        29.91S
ROMEOVILLE*    CLEAR     72  63  72 W10       29.91S
NORTHERLY ISL    N/A     77  63  61 SW7         N/A
$$

LMZ740>746-020700-
SOUTHERN LAKE MICHIGAN

STATION/POSITION SKY/WX   TEMP    WIND        PRES    VSBY  WAVE
                          AIR SEA DIR/SP/G                  HT/PER
                          (F)     (DEG/KT/KT) (MB)    (MI)  (FT/S)
HARRISON CRIB              78     250/ 16/ 20   N/A
BURNHAM HARBOR             77     250/  6/ 12   N/A
CALUMET HARBOR             76     230/  5/ 10   N/A
BURNS HARBOR               76     230/ 10/ 15 1013.2R
MICHIGAN CITY              75     190/ 12/ 14   N/A
MICHIGAN CITY 6N           75 74  240/ 12/ 14   N/A           2/ 3
ST. JOSEPH                 74 73  260/ 12/ 14   N/A           3/ 4
$$

ILZ025>027-034>036-040-047-049-050-058-095>099-020700-
WEST-CENTRAL ILLINOIS

CITY           SKY/WX    TMP DP  RH WIND       PRES   REMARKS
QUINCY         CLEAR     69  65  86 SW3       29.96S
GALESBURG*     CLEAR     71  68  92 S7        29.93F
MACOMB*        CLEAR     71  69  94 SW3       29.96F
JACKSONVILLE*  CLEAR     74  67  78 S5        29.96S
PITTSFIELD*    CLEAR     72  69  90 CALM      29.97F
$$

ILZ028>032-037-038-041>044-048-051>054-059>061-020700-
CENTRAL ILLINOIS

CITY           SKY/WX    TMP DP  RH WIND       PRES   REMARKS
PONTIAC        CLEAR     69  67  91 SW5       29.95S
BLOOMINGTON    CLEAR     71  65  81 SW9       29.97F
DECATUR        PTCLDY    69  62  78 SW6       29.97S
PEORIA         CLEAR     73  66  78 SW3       29.94F
6HR MIN TEMP:  72; 6HR MAX TEMP:  84;

LACON*         CLEAR     71  66  85 CALM      29.92S
LINCOLN*       CLEAR     70  64  83 CALM      29.96S
SPRINGFIELD    PTCLDY    70  64  81 S5        29.97S
6HR MIN TEMP:  68; 6HR MAX TEMP:  83;

TAYLORVILLE    CLEAR     64  63  94 S7        29.98S
$$

ILZ033-039-045-046-055>057-062-063-020700-
EAST-CENTRAL ILLINOIS

CITY           SKY/WX    TMP DP  RH WIND       PRES   REMARKS
CHAMPAIGN      MOCLDY    66  62  87 SW6       29.97S
DANVILLE*      CLOUDY    64  63  97 SW3       29.94F
RANTOUL*       MOCLDY    69  64  83 SW6       29.96S
MATTOON        PTCLDY    71  60  68 S7        29.97S
PARIS*         PTCLDY    66  62  89 SW6       29.98F
$$

ILZ079-100>102-020700-
SOUTHWEST ILLINOIS

CITY           SKY/WX    TMP DP  RH WIND       PRES   REMARKS
ALTON          PTCLDY    68  66  93 S3        29.98F
BELLEVILLE     PTCLDY    73  72  95 S2        29.97S
CAHOKIA*       PTCLDY    75  68  78 CALM      29.98R
SPARTA*        PTCLDY    73  68  84 S3        30.00S
$$

ILZ064>066-069>071-074>076-080>082-084>086-088>090-092>094-020700-
SOUTH-CENTRAL ILLINOIS

CITY           SKY/WX    TMP DP  RH WIND       PRES   REMARKS
CARBONDALE     PTCLDY    71  68  90 CALM      29.99S
6HR MIN TEMP:  71; 6HR MAX TEMP:  83;

CAIRO*         CLEAR     73  70  89 NE3       29.99S
EFFINGHAM*     PTCLDY    67  62  83 CALM      30.00S
MARION         CLEAR     73  66  78 CALM      30.00S
MT. VERNON     PTCLDY    66  63  88 CALM      30.00S
CENTRALIA*     PTCLDY    69  64  85 S3        29.99F
SALEM*         CLEAR     68  64  88 CALM      29.99S
METROPOLIS*    CLEAR     70  70 100 CALM      30.00S
$$

ILZ067-068-072-073-078-083-087-091-020700-
SOUTHEAST ILLINOIS

CITY           SKY/WX    TMP DP  RH WIND       PRES   REMARKS
LAWRENCEVILLE  CLEAR     66  64  93 S3        29.99S
FLORA*         CLEAR     65  63  91 CALM      29.99S
FAIRFIELD*     PTCLDY    67  65  91 CALM      29.99S
HARRISBURG*    CLEAR     66  66 100 CALM      30.01S
ROBINSON*      CLEAR     63  62  96 CALM      29.99F
CARMI*         PTCLDY    65  61  87 CALM      29.99F
$$

ABBREVIATIONS USED IN REMARKS
   TC - TEMPERATURE IN CELSIUS
  WCI - WIND CHILL INDEX
   HX - HEAT INDEX
  VSB - VISIBILITY
$$



USA.gov is the U.S. government's official web portal to all federal, state and local government web resources and services.